Time[GMT],temperature[C](51m),dissolved_oxygen[ml/l](51m),oxygen_saturation[ml/l](51m),percent_oxygen_saturation[%](51m)
2022-09-09 16:00,10.88,5.753,7.7259,74.46
2022-09-09 17:00,10.59,5.927,7.7797,76.19
2022-09-09 18:00,10.68,5.936,7.7640,76.46
2022-09-09 19:00,10.60,5.948,7.7766,76.48
2022-09-09 20:00,9.96,5.773,7.8961,73.11
2022-09-09 21:00,9.61,5.961,7.9607,74.88
2022-09-09 22:00,9.63,5.795,7.9583,72.82
2022-09-09 23:00,10.03,5.997,7.8822,76.08
2022-09-10 00:00,9.80,5.883,7.9227,74.25
2022-09-10 03:00,,0.573,0.3199,
2022-09-10 04:00,,5.159,,
2022-09-10 05:00,,,,
2022-09-10 06:00,0.00,0.000,-0.0000,
2022-09-10 07:00,,,,
2022-09-10 08:00,,5.733,,
2022-09-10 09:00,-1.02,11.465,,
2022-09-10 10:00,,,,
2022-09-10 11:00,,,,
2022-09-10 12:00,,,2.0793,
2022-09-10 13:00,,,,
2022-09-10 14:00,20.48,,,
2022-09-10 15:00,,,,
2022-09-10 16:00,,,,
2022-09-10 17:00,,,,
2022-09-10 18:00,10.34,5.970,7.8253,76.29
2022-09-10 19:00,,,,
2022-09-10 20:00,10.27,6.064,7.8376,77.37
2022-09-10 21:00,,,3.9623,
2022-09-10 22:00,,0.573,,
2022-09-10 23:00,,5.159,,
2022-09-11 00:00,,5.159,,
2022-09-11 01:00,,5.159,,
2022-09-11 02:00,,5.159,,
2022-09-11 03:00,,5.159,,
2022-09-11 04:00,,5.159,,
2022-09-11 05:00,,5.159,,
2022-09-11 06:00,,5.159,,
2022-09-11 07:00,,5.159,,
2022-09-11 08:00,,5.159,,
2022-09-11 09:00,,5.159,,
2022-09-11 10:00,,5.159,,
2022-09-11 11:00,,5.159,,
2022-09-11 12:00,,5.159,,
2022-09-11 15:00,10.27,6.118,7.8382,78.05
2022-09-11 16:00,10.37,6.140,7.8178,78.54
2022-09-11 17:00,10.51,6.107,7.7929,78.36
2022-09-11 18:00,10.46,6.082,7.8043,77.93
2022-09-11 19:00,10.38,6.111,7.8166,78.18
2022-09-11 20:00,10.39,6.109,7.8137,78.18
2022-09-11 21:00,10.15,5.997,7.8585,76.31
2022-09-11 22:00,10.13,6.091,7.8612,77.48
2022-09-11 23:00,10.48,6.158,7.7969,78.98
2022-09-12 00:00,9.85,5.777,7.9163,72.98
2022-09-12 01:00,9.70,5.836,7.9460,73.44
2022-09-12 02:00,9.89,5.977,7.9067,75.59
2022-09-12 03:00,9.96,6.019,7.8940,76.25
2022-09-12 04:00,10.26,6.057,7.8401,77.26
2022-09-12 05:00,10.21,6.104,7.8471,77.79
2022-09-12 06:00,10.18,6.037,7.8526,76.88
2022-09-12 07:00,10.22,6.084,7.8464,77.54
2022-09-12 08:00,10.42,6.028,7.8095,77.19
2022-09-12 09:00,10.61,6.127,7.7760,78.79
2022-09-12 10:00,10.43,6.062,7.8075,77.64
2022-09-12 11:00,10.07,5.992,7.8732,76.11
2022-09-12 12:00,10.33,6.122,7.8249,78.24
2022-09-12 13:00,9.95,5.981,7.8959,75.75
2022-09-12 14:00,9.93,5.909,7.9014,74.79
2022-09-12 15:00,9.98,6.012,7.8924,76.18
2022-09-12 16:00,10.07,6.062,7.8754,76.97
2022-09-12 17:00,10.17,6.053,7.8556,77.05
2022-09-12 18:00,10.26,6.046,7.8378,77.14
2022-09-12 19:00,10.11,6.015,7.8654,76.47
2022-09-12 20:00,10.20,6.062,7.8500,77.22
2022-09-12 21:00,10.14,6.044,7.8603,76.89
2022-09-12 22:00,10.25,6.066,7.8405,77.37
2022-09-12 23:00,10.16,6.131,7.8594,78.01
2022-09-13 00:00,10.09,6.089,7.8715,77.35
2022-09-13 01:00,10.09,6.084,7.8698,77.31
2022-09-13 02:00,10.00,6.026,7.8883,76.39
2022-09-13 03:00,10.01,6.062,7.8867,76.86
2022-09-13 04:00,10.10,6.080,7.8660,77.29
2022-09-13 05:00,10.18,5.939,7.8542,75.61
2022-09-13 06:00,10.09,5.965,7.8689,75.81
2022-09-13 07:00,10.09,5.954,7.8697,75.66
2022-09-13 08:00,10.12,5.956,7.8654,75.73
2022-09-13 09:00,10.11,5.959,7.8684,75.73
2022-09-13 10:00,10.06,5.988,7.8767,76.02
2022-09-13 11:00,10.06,6.033,7.8765,76.59
2022-09-13 12:00,10.04,6.028,7.8779,76.52
2022-09-13 13:00,10.03,6.010,7.8833,76.24
2022-09-13 14:00,9.99,5.995,7.8896,75.98
2022-09-13 16:00,10.06,5.983,7.8749,75.98
2022-09-13 17:00,10.09,5.972,7.8716,75.87
2022-09-13 18:00,10.06,5.968,7.8760,75.77
2022-09-13 19:00,10.04,5.952,7.8782,75.55
2022-09-13 20:00,10.06,5.956,7.8748,75.64
2022-09-13 21:00,10.04,5.950,7.8784,75.52
2022-09-13 22:00,10.10,5.970,7.8697,75.86
2022-09-13 23:00,10.03,5.974,7.8818,75.80
2022-09-14 00:00,10.00,6.008,7.8876,76.17
2022-09-14 01:00,10.00,6.017,7.8859,76.30
2022-09-14 02:00,10.05,6.062,7.8785,76.94
2022-09-14 03:00,9.96,5.954,7.8958,75.41
2022-09-14 04:00,9.98,6.008,7.8907,76.14
2022-09-14 05:00,9.97,6.012,7.8945,76.16
2022-09-14 06:00,10.10,6.033,7.8693,76.66
2022-09-14 07:00,10.02,5.995,7.8824,76.05
2022-09-14 08:00,9.98,5.963,7.8920,75.56
2022-09-14 09:00,10.04,6.033,7.8796,76.56
2022-09-14 10:00,10.03,6.030,7.8808,76.52
2022-09-14 11:00,9.99,5.981,7.8886,75.82
2022-09-14 12:00,9.91,5.956,7.9040,75.36
2022-09-14 13:00,9.89,5.956,7.9051,75.35
2022-09-14 14:00,10.00,6.006,7.8867,76.15
2022-09-14 15:00,9.98,6.053,7.8915,76.70
2022-09-14 16:00,9.92,5.959,7.9018,75.41
2022-09-14 17:00,9.88,6.017,7.9108,76.06
2022-09-14 18:00,10.15,6.145,7.8575,78.20
2022-09-14 19:00,10.26,6.075,7.8389,77.50
2022-09-14 20:00,10.21,6.030,7.8470,76.85
2022-09-14 21:00,10.17,5.981,7.8544,76.15
2022-09-14 22:00,10.13,5.999,7.8635,76.29
2022-09-14 23:00,10.25,6.053,7.8414,77.19
2022-09-15 00:00,10.31,6.124,7.8288,78.23
2022-09-15 01:00,10.21,6.077,7.8469,77.45
2022-09-15 02:00,10.30,6.066,7.8304,77.47
2022-09-15 03:00,9.87,5.950,7.9098,75.22
2022-09-15 04:00,10.34,6.149,7.8252,78.58
2022-09-15 05:00,10.41,6.109,7.8107,78.21
2022-09-15 06:00,10.88,6.227,7.7264,80.60
2022-09-15 07:00,10.91,6.194,7.7230,80.20
2022-09-15 08:00,11.08,6.245,7.6913,81.20
2022-09-15 09:00,10.69,6.127,7.7622,78.93
2022-09-15 10:00,10.79,6.120,7.7429,79.04
2022-09-15 11:00,10.66,6.147,7.7660,79.15
2022-09-15 12:00,11.03,6.324,7.7025,82.10
2022-09-15 13:00,10.51,6.104,7.7940,78.32
2022-09-15 14:00,10.26,6.086,7.8392,77.64
2022-09-15 15:00,10.67,6.042,7.7625,77.83
2022-09-15 16:00,10.60,6.154,7.7775,79.12
2022-09-15 17:00,10.67,6.145,7.7662,79.12
2022-09-15 18:00,10.83,6.223,7.7304,80.50
2022-09-15 19:00,11.33,6.216,7.6461,81.30
2022-09-15 20:00,11.31,6.248,7.6470,81.70
2022-09-15 21:00,11.11,6.241,7.6858,81.20
2022-09-15 22:00,11.10,6.274,7.6893,81.60
2022-09-15 23:00,11.38,6.245,7.6349,81.80
2022-09-16 00:00,11.28,6.189,7.6601,80.80
2022-09-16 01:00,11.38,6.245,7.6349,81.80
2022-09-16 02:00,11.61,6.416,7.6013,84.40
2022-09-16 03:00,10.65,6.232,7.7705,80.20
2022-09-16 04:00,9.99,5.822,7.8880,73.81
2022-09-16 05:00,9.90,5.858,7.9044,74.11
2022-09-16 06:00,9.93,5.889,7.8987,74.56
2022-09-16 07:00,9.99,5.927,7.8884,75.14
2022-09-16 08:00,10.18,6.055,7.8514,77.12
2022-09-16 09:00,11.12,6.313,7.6795,82.20
2022-09-16 10:00,11.29,6.382,7.6522,83.40
2022-09-16 11:00,10.84,6.301,7.7317,81.50
2022-09-16 12:00,10.76,6.241,7.7430,80.60
2022-09-16 13:00,10.57,5.925,7.7839,76.12
2022-09-16 14:00,10.52,5.652,7.7904,72.55
2022-09-16 15:00,10.25,5.721,7.8396,72.98
2022-09-16 16:00,10.00,5.927,7.8884,75.14
2022-09-16 17:00,9.80,5.708,7.9233,72.04
2022-09-16 18:00,9.87,5.782,7.9127,73.07
2022-09-16 19:00,10.25,5.692,7.8416,72.59
2022-09-16 20:00,9.97,5.925,7.8918,75.08
2022-09-16 21:00,10.22,5.703,7.8463,72.69
2022-09-16 22:00,10.24,5.771,7.8448,73.56
2022-09-16 23:00,10.06,5.856,7.8780,74.33
2022-09-17 00:00,10.07,5.943,7.8758,75.46
2022-09-17 01:00,10.02,5.974,7.8828,75.79
2022-09-17 02:00,9.98,5.815,7.8896,73.71
2022-09-17 03:00,9.93,5.739,7.8988,72.66
2022-09-17 04:00,10.03,5.858,7.8821,74.32
2022-09-17 05:00,9.98,5.777,7.8915,73.21
2022-09-17 06:00,9.97,5.764,7.8947,73.01
2022-09-17 07:00,10.10,5.748,7.8667,73.07
2022-09-17 08:00,10.39,5.829,7.8135,74.60
2022-09-17 09:00,,,,
2022-09-17 10:00,10.29,5.791,7.8349,73.91
2022-09-17 11:00,10.46,5.849,7.8039,74.95
2022-09-17 12:00,10.27,5.748,7.8367,73.35
2022-09-17 13:00,10.07,5.737,7.8730,72.87
2022-09-17 14:00,9.92,5.710,7.9012,72.27
2022-09-17 15:00,10.18,5.739,7.8523,73.09
2022-09-17 16:00,9.80,5.679,7.9258,71.65
2022-09-17 17:00,9.81,5.746,7.9211,72.54
2022-09-17 18:00,9.66,5.650,7.9495,71.07
2022-09-17 19:00,9.97,5.780,7.8945,73.21
2022-09-17 20:00,10.05,5.827,7.8791,73.95
2022-09-17 21:00,10.15,5.647,7.8612,71.84
2022-09-17 22:00,10.19,5.663,7.8535,72.11
2022-09-17 23:00,10.09,5.636,7.8697,71.62
2022-09-18 00:00,10.11,5.627,7.8649,71.55
2022-09-18 01:00,10.06,5.558,7.8768,70.56
2022-09-18 02:00,9.75,5.533,7.9364,69.72
2022-09-18 03:00,9.84,5.506,7.9172,69.55
2022-09-18 04:00,9.79,5.639,7.9248,71.15
2022-09-18 05:00,9.82,5.616,7.9189,70.92
2022-09-18 06:00,9.65,5.596,7.9533,70.36
2022-09-18 07:00,9.92,5.639,7.9015,71.36
2022-09-18 08:00,9.69,5.565,7.9438,70.05
2022-09-18 09:00,9.87,5.551,7.9122,70.16
2022-09-18 10:00,10.33,5.688,7.8258,72.68
2022-09-18 11:00,9.92,5.562,7.9022,70.39
2022-09-18 12:00,9.71,5.511,7.9430,69.38
2022-09-18 13:00,9.68,5.551,7.9484,69.84
2022-09-18 14:00,10.24,5.719,7.8419,72.93
2022-09-18 15:00,10.31,5.726,7.8297,73.13
2022-09-18 16:00,10.03,5.692,7.8796,72.24
2022-09-18 17:00,10.29,5.703,7.8333,72.81
2022-09-18 18:00,10.48,5.755,7.7980,73.80
2022-09-18 19:00,10.21,5.618,7.8469,71.60
2022-09-18 20:00,9.78,5.730,7.9290,72.27
2022-09-18 21:00,9.83,5.634,7.9174,71.16
2022-09-18 22:00,9.74,5.742,7.9368,72.34
2022-09-18 23:00,10.07,5.686,7.8736,72.21
2022-09-19 00:00,9.92,5.677,7.9028,71.83
2022-09-19 01:00,9.96,5.694,7.8948,72.13
2022-09-19 02:00,10.11,5.766,7.8654,73.31
2022-09-19 03:00,10.15,5.759,7.8606,73.27
2022-09-19 04:00,10.24,5.757,7.8425,73.41
2022-09-19 05:00,10.37,5.780,7.8198,73.91
2022-09-19 06:00,10.47,5.831,7.8008,74.75
2022-09-19 07:00,10.27,5.679,7.8372,72.46
2022-09-19 08:00,,,,
2022-09-19 09:00,9.78,5.578,7.9290,70.35
2022-09-19 10:00,10.00,5.690,7.8875,72.14
2022-09-19 11:00,10.07,5.775,7.8734,73.35
2022-09-19 12:00,10.19,5.764,7.8538,73.39
2022-09-19 13:00,10.23,5.851,7.8456,74.58
2022-09-19 14:00,10.05,5.755,7.8781,73.05
2022-09-19 15:00,10.35,5.921,7.8222,75.69
2022-09-19 16:00,10.58,5.939,7.7822,76.31
2022-09-19 17:00,10.31,5.811,7.8293,74.22
2022-09-19 18:00,10.49,5.827,7.7979,74.72
2022-09-19 19:00,10.07,5.750,7.8741,73.03
2022-09-19 20:00,10.48,5.845,7.8000,74.93
2022-09-19 21:00,10.13,5.829,7.8630,74.13
2022-09-19 22:00,10.18,5.824,7.8538,74.16
2022-09-19 23:00,10.19,5.818,7.8511,74.10
2022-09-20 00:00,10.14,5.746,7.8637,73.07
2022-09-20 01:00,10.13,5.824,7.8612,74.09
2022-09-20 02:00,10.23,5.869,7.8444,74.82
2022-09-20 03:00,10.20,5.883,7.8487,74.95
2022-09-20 04:00,10.27,5.889,7.8388,75.13
2022-09-20 05:00,10.33,5.930,7.8268,75.76
2022-09-20 06:00,10.33,5.936,7.8264,75.85
2022-09-20 07:00,10.23,5.950,7.8441,75.85
2022-09-20 08:00,10.04,5.777,7.8796,73.32
2022-09-20 09:00,10.03,5.804,7.8808,73.65
2022-09-20 10:00,10.28,5.867,7.8372,74.86
2022-09-20 11:00,10.39,5.856,7.8160,74.92
2022-09-20 12:00,10.10,5.773,7.8682,73.37
2022-09-20 13:00,10.10,5.764,7.8688,73.25
2022-09-20 14:00,10.04,5.789,7.8799,73.46
2022-09-20 15:00,10.12,5.950,7.8659,75.64
2022-09-20 16:00,10.26,6.042,7.8411,77.05
2022-09-20 17:00,10.29,6.080,7.8356,77.59
2022-09-20 18:00,10.25,6.044,7.8400,77.09
2022-09-20 19:00,10.11,5.880,7.8656,74.76
2022-09-20 20:00,10.29,6.059,7.8339,77.35
2022-09-20 21:00,10.26,6.035,7.8395,76.98
2022-09-20 22:00,10.29,5.972,7.8334,76.24
2022-09-20 23:00,10.33,5.974,7.8271,76.33
2022-09-21 00:00,10.70,6.077,7.7607,78.31
2022-09-21 01:00,10.61,6.001,7.7757,77.18
2022-09-21 02:00,10.52,5.988,7.7926,76.84
2022-09-21 03:00,10.51,5.979,7.7931,76.72
2022-09-21 04:00,10.52,5.988,7.7916,76.85
2022-09-21 05:00,10.53,5.979,7.7911,76.74
2022-09-21 06:00,10.53,5.990,7.7904,76.89
2022-09-21 07:00,10.54,6.001,7.7868,77.07
2022-09-21 08:00,10.53,6.006,7.7906,77.09
2022-09-21 09:00,10.52,6.008,7.7894,77.13
2022-09-21 10:00,10.63,5.990,7.7712,77.08
2022-09-21 11:00,10.65,6.044,7.7664,77.82
2022-09-21 12:00,10.79,6.062,7.7427,78.29
2022-09-21 13:00,10.69,6.062,7.7595,78.12
2022-09-21 14:00,10.86,6.127,7.7289,79.27
2022-09-21 15:00,10.83,6.120,7.7350,79.12
2022-09-21 16:00,10.82,6.084,7.7367,78.64
2022-09-21 17:00,10.85,6.109,7.7306,79.02
2022-09-21 18:00,10.90,6.136,7.7236,79.44
2022-09-21 19:00,10.94,6.115,7.7157,79.26
2022-09-21 20:00,10.92,6.122,7.7203,79.30
2022-09-21 21:00,10.79,6.048,7.7423,78.12
2022-09-21 22:00,10.97,6.082,7.7093,78.89
2022-09-21 23:00,,,,
2022-09-22 00:00,10.83,6.080,7.7349,78.60
2022-09-22 01:00,10.94,6.122,7.7164,79.34
2022-09-22 02:00,11.03,6.180,7.6967,80.30
2022-09-22 03:00,10.98,6.145,7.7087,79.71
2022-09-22 04:00,10.97,6.120,7.7097,79.38
2022-09-22 05:00,10.97,6.127,7.7114,79.45
2022-09-22 06:00,10.97,6.147,7.7115,79.71
2022-09-22 07:00,10.83,5.974,7.7339,77.25
2022-09-22 08:00,10.49,5.869,7.7985,75.26
2022-09-22 09:00,10.85,6.151,7.7317,79.56
2022-09-22 10:00,10.94,6.142,7.7175,79.59
2022-09-22 11:00,10.96,6.142,7.7126,79.64
2022-09-22 12:00,,,,
2022-09-22 13:00,10.88,6.028,7.7284,78.00
2022-09-22 14:00,10.75,5.970,7.7501,77.03
2022-09-22 15:00,10.94,6.064,7.7169,78.58
2022-09-22 16:00,10.74,6.037,7.7528,77.87
2022-09-22 17:00,10.69,6.077,7.7607,78.31
2022-09-22 18:00,10.76,6.100,7.7487,78.72
2022-09-22 19:00,10.67,6.075,7.7638,78.25
2022-09-22 20:00,10.68,6.104,7.7633,78.63
2022-09-22 21:00,10.64,6.080,7.7685,78.26
2022-09-22 22:00,10.78,6.127,7.7465,79.09
2022-09-22 23:00,10.65,6.102,7.7684,78.55
2022-09-23 00:00,10.41,6.028,7.8125,77.16
2022-09-23 01:00,10.61,6.073,7.7748,78.11
2022-09-23 02:00,10.56,6.012,7.7841,77.24
2022-09-23 03:00,10.56,6.006,7.7835,77.16
2022-09-23 04:00,10.61,6.033,7.7770,77.57
2022-09-23 05:00,10.72,6.084,7.7554,78.45
2022-09-23 06:00,10.82,6.059,7.7349,78.34
2022-09-23 07:00,10.98,6.154,7.7093,79.82
2022-09-23 08:00,10.96,6.124,7.7124,79.41
2022-09-23 09:00,10.71,6.145,7.7583,79.20
2022-09-23 10:00,11.06,6.178,7.6939,80.30
2022-09-23 11:00,11.00,6.165,7.7059,80.00
2022-09-23 12:00,11.00,6.129,7.7035,79.56
2022-09-23 13:00,10.93,6.118,7.7185,79.26
2022-09-23 14:00,10.98,6.122,7.7096,79.41
2022-09-23 15:00,11.07,6.113,7.6935,79.46
2022-09-23 16:00,11.18,5.934,7.6747,77.32
2022-09-23 17:00,11.25,5.909,7.6607,77.14
2022-09-23 18:00,11.20,6.021,7.6716,78.49
2022-09-23 19:00,11.15,6.028,7.6782,78.51
2022-09-23 20:00,10.47,5.968,7.8019,76.49
2022-09-23 21:00,10.61,6.111,7.7748,78.60
2022-09-23 22:00,10.46,5.811,7.8020,74.48
2022-09-23 23:00,11.03,6.174,7.6979,80.20
2022-09-24 00:00,11.05,6.098,7.6951,79.24
2022-09-24 01:00,11.08,6.059,7.6917,78.78
2022-09-24 02:00,11.21,6.095,7.6690,79.48
2022-09-24 03:00,11.45,5.923,7.6247,77.68
2022-09-24 04:00,11.27,5.992,7.6579,78.25
2022-09-24 05:00,11.12,6.082,7.6830,79.16
2022-09-24 06:00,10.90,6.095,7.7224,78.93
2022-09-24 07:00,10.45,5.892,7.8065,75.47
2022-09-24 08:00,10.63,6.021,7.7726,77.47
2022-09-24 09:00,10.83,6.075,7.7351,78.54
2022-09-24 10:00,9.97,5.549,7.8943,70.29
2022-09-24 11:00,9.96,5.692,7.8949,72.10
2022-09-24 12:00,10.39,5.905,7.8160,75.55
2022-09-24 13:00,10.52,5.968,7.7907,76.60
2022-09-24 14:00,10.49,5.802,7.7963,74.42
2022-09-24 15:00,10.71,5.932,7.7561,76.48
2022-09-24 16:00,10.70,5.789,7.7594,74.60
2022-09-24 17:00,10.64,5.842,7.7680,75.21
2022-09-24 18:00,10.44,5.806,7.8065,74.38
2022-09-24 19:00,10.79,6.021,7.7416,77.78
2022-09-24 20:00,10.97,5.990,7.7112,77.68
2022-09-24 21:00,10.76,5.925,7.7493,76.46
2022-09-24 22:00,10.09,5.686,7.8703,72.24
2022-09-24 23:00,10.04,5.645,7.8800,71.64
2022-09-25 00:00,10.02,5.439,7.8841,68.99
2022-09-25 01:00,9.18,5.338,8.0422,66.38
2022-09-25 02:00,10.43,5.654,7.8096,72.40
2022-09-25 03:00,10.45,5.654,7.8043,72.45
2022-09-25 04:00,10.37,5.475,7.8193,70.02
2022-09-25 05:00,10.75,5.697,7.7517,73.49
2022-09-25 06:00,10.62,5.641,7.7739,72.56
2022-09-25 07:00,10.53,5.605,7.7900,71.95
2022-09-25 08:00,9.91,5.383,7.9049,68.10
2022-09-25 09:00,9.49,5.280,7.9822,66.15
2022-09-25 10:00,9.42,5.280,7.9955,66.04
2022-09-25 11:00,10.06,5.551,7.8751,70.49
2022-09-25 12:00,10.36,5.540,7.8215,70.83
2022-09-25 13:00,10.59,5.643,7.7802,72.53
2022-09-25 14:00,10.52,5.524,7.7928,70.89
2022-09-25 15:00,10.45,5.656,7.8052,72.47
2022-09-25 16:00,10.33,5.544,7.8267,70.84
2022-09-25 17:00,10.29,5.549,7.8331,70.84
2022-09-25 18:00,11.15,5.977,7.6791,77.83
2022-09-25 19:00,11.31,6.010,7.6515,78.55
2022-09-25 20:00,11.58,6.075,7.6025,79.91
2022-09-25 21:00,11.24,5.833,7.6643,76.11
2022-09-25 22:00,11.81,6.107,7.5669,80.70
2022-09-25 23:00,12.45,6.308,7.4563,84.60
2022-09-26 00:00,12.56,6.252,7.4341,84.10
2022-09-26 01:00,12.10,6.140,7.5154,81.70
2022-09-26 02:00,10.74,5.569,7.7521,71.84
2022-09-26 03:00,11.32,5.876,7.6489,76.82
2022-09-26 04:00,10.85,5.768,7.7303,74.62
2022-09-26 05:00,10.44,5.742,7.8052,73.56
2022-09-26 06:00,10.52,5.690,7.7913,73.03
2022-09-26 07:00,10.17,5.670,7.8563,72.17
2022-09-26 08:00,10.77,5.838,7.7466,75.36
2022-09-26 09:00,11.02,5.860,7.7007,76.10
2022-09-26 10:00,11.13,5.842,7.6832,76.04
2022-09-26 11:00,11.34,5.842,7.6440,76.43
2022-09-26 12:00,11.27,5.869,7.6571,76.65
2022-09-26 13:00,10.62,5.742,7.7725,73.87
2022-09-26 14:00,,,,
2022-09-26 15:00,10.73,5.780,7.7526,74.55
2022-09-26 16:00,10.54,5.845,7.7865,75.06
2022-09-26 17:00,10.19,5.692,7.8525,72.49
2022-09-26 18:00,10.14,5.656,7.8627,71.94
2022-09-26 19:00,10.34,5.746,7.8251,73.43
2022-09-26 20:00,10.13,5.663,7.8644,72.01
2022-09-26 21:00,10.90,5.867,7.7217,75.98
2022-09-26 22:00,10.92,5.880,7.7200,76.17
2022-09-26 23:00,10.54,5.777,7.7893,74.17
2022-09-27 00:00,10.08,5.587,7.8712,70.98
2022-09-27 01:00,10.39,5.768,7.8141,73.82
2022-09-27 02:00,10.26,5.766,7.8387,73.56
2022-09-27 03:00,10.61,5.833,7.7747,75.03
2022-09-27 04:00,10.26,5.587,7.8403,71.26
2022-09-27 05:00,,,,
2022-09-27 06:00,10.02,5.578,7.8842,70.75
2022-09-27 07:00,9.92,5.558,7.9015,70.34
2022-09-27 08:00,10.19,5.742,7.8511,73.13
2022-09-27 09:00,9.97,5.560,7.8934,70.44
2022-09-27 10:00,10.50,5.775,7.7958,74.08
2022-09-27 11:00,10.63,5.806,7.7710,74.72
2022-09-27 12:00,10.33,5.739,7.8277,73.32
2022-09-27 13:00,10.28,5.750,7.8355,73.39
2022-09-27 14:00,10.00,5.612,7.8871,71.15
2022-09-27 15:00,10.22,5.701,7.8453,72.67
2022-09-27 16:00,10.51,5.784,7.7931,74.22
2022-09-27 17:00,10.47,5.822,7.7992,74.65
2022-09-27 18:00,10.33,5.771,7.8256,73.74
2022-09-27 19:00,10.20,5.730,7.8498,73.00
2022-09-27 20:00,10.07,5.688,7.8745,72.23
2022-09-27 21:00,10.22,5.782,7.8451,73.70
2022-09-27 22:00,10.13,5.715,7.8627,72.68
2022-09-27 23:00,10.16,5.701,7.8572,72.56
2022-09-28 00:00,10.21,5.706,7.8504,72.68
2022-09-28 01:00,10.35,5.907,7.8252,75.49
2022-09-28 02:00,10.36,5.706,7.8224,72.94
2022-09-28 03:00,10.00,5.661,7.8865,71.78
2022-09-28 04:00,10.09,5.679,7.8708,72.15
2022-09-28 05:00,10.13,5.672,7.8626,72.14
2022-09-28 06:00,10.35,5.775,7.8222,73.83
2022-09-28 07:00,10.46,5.728,7.8029,73.41
2022-09-28 08:00,9.91,5.547,7.9047,70.17
2022-09-28 09:00,10.68,5.876,7.7610,75.71
2022-09-28 10:00,10.18,5.730,7.8551,72.95
2022-09-28 11:00,10.19,5.710,7.8523,72.72
2022-09-28 12:00,10.26,5.780,7.8378,73.74
2022-09-28 13:00,10.36,5.768,7.8215,73.75
2022-09-28 14:00,10.57,5.876,7.7836,75.49
2022-09-28 15:00,10.29,5.623,7.8312,71.80
2022-09-28 16:00,9.99,5.518,7.8890,69.94
2022-09-28 17:00,9.83,5.450,7.9187,68.83
2022-09-28 18:00,9.91,5.538,7.9043,70.06
2022-09-28 19:00,10.25,5.706,7.8407,72.77
2022-09-28 20:00,10.39,5.746,7.8145,73.53
2022-09-28 21:00,11.03,6.100,7.7008,79.21
2022-09-28 22:00,10.75,5.871,7.7490,75.77
2022-09-28 23:00,10.83,5.916,7.7366,76.47
2022-09-29 00:00,10.50,5.822,7.7961,74.68
2022-09-29 01:00,10.37,5.771,7.8214,73.78
2022-09-29 02:00,11.45,6.124,7.6269,80.30
2022-09-29 03:00,10.74,5.804,7.7514,74.88
2022-09-29 04:00,10.68,5.894,7.7611,75.94
2022-09-29 05:00,10.62,5.856,7.7734,75.33
2022-09-29 06:00,,,,
2022-09-29 07:00,10.34,5.679,7.8242,72.58
2022-09-29 08:00,10.34,5.811,7.8251,74.26
2022-09-29 09:00,10.52,5.793,7.7905,74.36
2022-09-29 10:00,10.68,5.903,7.7617,76.05
2022-09-29 11:00,10.41,5.683,7.8110,72.76
2022-09-29 12:00,10.77,5.936,7.7467,76.63
2022-09-29 13:00,10.83,5.921,7.7374,76.52
2022-09-29 14:00,11.02,5.941,7.7003,77.15
2022-09-29 15:00,10.82,5.878,7.7374,75.97
2022-09-29 16:00,10.47,5.699,7.8004,73.06
2022-09-29 17:00,10.36,5.733,7.8217,73.29
2022-09-29 18:00,10.45,5.659,7.8029,72.52
2022-09-29 19:00,10.50,5.771,7.7939,74.04
2022-09-29 20:00,10.48,5.766,7.7984,73.94
2022-09-29 21:00,10.53,5.784,7.7889,74.26
2022-09-29 22:00,10.56,5.775,7.7853,74.18
2022-09-29 23:00,10.49,5.775,7.7968,74.07
2022-09-30 00:00,10.74,5.892,7.7531,75.99
2022-09-30 01:00,10.79,5.833,7.7447,75.32
2022-09-30 02:00,10.92,5.885,7.7198,76.23
2022-09-30 03:00,10.99,5.939,7.7044,77.08
2022-09-30 04:00,10.59,5.809,7.7792,74.67
2022-09-30 05:00,10.46,5.708,7.8041,73.14
2022-09-30 06:00,10.61,5.746,7.7754,73.90
2022-09-30 07:00,10.88,5.851,7.7254,75.74
2022-09-30 08:00,11.35,6.006,7.6428,78.58
2022-09-30 09:00,11.50,6.042,7.6177,79.31
2022-09-30 10:00,11.12,5.892,7.6853,76.66
2022-09-30 11:00,11.00,5.898,7.7051,76.55
2022-09-30 12:00,10.86,5.847,7.7307,75.63
2022-09-30 13:00,10.75,5.813,7.7488,75.02
2022-09-30 14:00,10.89,5.894,7.7235,76.31
2022-09-30 15:00,11.41,5.999,7.6324,78.60
2022-09-30 16:00,10.67,5.768,7.7636,74.30
2022-09-30 17:00,10.88,5.860,7.7260,75.85
2022-09-30 18:00,10.94,5.764,7.7181,74.68
2022-09-30 19:00,10.90,5.809,7.7212,75.23
2022-09-30 20:00,10.54,5.697,7.7888,73.14
2022-09-30 21:00,10.42,5.616,7.8088,71.92
2022-09-30 22:00,10.67,5.777,7.7632,74.42
2022-09-30 23:00,10.41,5.663,7.8112,72.50
2022-10-01 00:00,10.73,5.780,7.7547,74.53
2022-10-01 01:00,10.72,5.759,7.7537,74.28
2022-10-01 02:00,11.05,5.856,7.6958,76.09
2022-10-01 03:00,11.22,5.959,7.6669,77.72
2022-10-01 04:00,11.07,5.786,7.6915,75.23
2022-10-01 05:00,10.66,5.750,7.7646,74.06
2022-10-01 06:00,10.78,5.809,7.7429,75.02
2022-10-01 07:00,11.00,5.909,7.7056,76.69
2022-10-01 08:00,11.47,5.959,7.6228,78.17
2022-10-01 09:00,11.17,5.901,7.6750,76.88
2022-10-01 10:00,10.96,5.833,7.7120,75.64
2022-10-01 11:00,10.46,5.645,7.8016,72.36
2022-10-01 12:00,10.72,5.815,7.7539,75.00
2022-10-01 13:00,10.96,5.840,7.7127,75.72
2022-10-01 14:00,10.78,5.806,7.7461,74.96
2022-10-01 15:00,10.63,5.755,7.7707,74.06
2022-10-01 16:00,10.59,5.650,7.7787,72.63
2022-10-01 17:00,10.77,5.789,7.7470,74.72
2022-10-01 18:00,10.51,5.677,7.7943,72.83
2022-10-01 19:00,10.38,5.574,7.8149,71.32
2022-10-01 20:00,10.54,5.692,7.7869,73.10
2022-10-01 21:00,10.75,5.762,7.7494,74.35
2022-10-01 22:00,10.80,5.782,7.7411,74.69
2022-10-01 23:00,10.97,5.820,7.7105,75.48
2022-10-02 00:00,11.23,5.974,7.6644,77.95
2022-10-02 01:00,11.17,5.869,7.6751,76.47
2022-10-02 02:00,11.16,5.887,7.6754,76.70
2022-10-02 03:00,10.87,5.742,7.7296,74.28
2022-10-02 04:00,10.92,5.797,7.7187,75.11
2022-10-02 05:00,10.78,5.802,7.7432,74.93
2022-10-02 06:00,10.99,5.865,7.7076,76.09
2022-10-02 07:00,10.52,5.621,7.7923,72.13
2022-10-02 08:00,10.33,5.591,7.8257,71.45
2022-10-02 09:00,10.43,5.645,7.8059,72.32
2022-10-02 10:00,10.90,5.912,7.7227,76.55
2022-10-02 11:00,11.54,6.008,7.6089,78.96
2022-10-02 12:00,11.29,5.836,7.6522,76.26
2022-10-02 13:00,11.21,5.771,7.6666,75.27
2022-10-02 14:00,10.71,5.650,7.7574,72.83
2022-10-02 15:00,10.97,5.894,7.7093,76.45
2022-10-02 16:00,10.68,5.627,7.7618,72.50
2022-10-02 17:00,11.29,6.015,7.6533,78.59
2022-10-02 18:00,11.57,6.019,7.6038,79.16
2022-10-02 19:00,11.21,5.923,7.6692,77.23
2022-10-02 20:00,11.03,5.777,7.6990,75.04
2022-10-02 21:00,11.25,5.827,7.6626,76.04
2022-10-02 22:00,10.99,5.699,7.7055,73.96
2022-10-02 23:00,11.02,5.804,7.7010,75.37
2022-10-03 00:00,11.04,5.791,7.6964,75.24
2022-10-03 01:00,10.92,5.777,7.7196,74.84
2022-10-03 02:00,10.82,5.715,7.7371,73.86
2022-10-03 03:00,10.71,5.733,7.7582,73.89
2022-10-03 04:00,10.59,5.719,7.7801,73.51
2022-10-03 05:00,10.73,5.630,7.7542,72.60
2022-10-03 06:00,10.57,5.683,7.7821,73.03
2022-10-03 07:00,10.44,5.607,7.8051,71.84
2022-10-03 08:00,10.53,5.556,7.7908,71.31
2022-10-03 09:00,10.55,5.484,7.7842,70.45
2022-10-03 10:00,10.93,5.520,7.7179,71.52
2022-10-03 11:00,10.54,5.435,7.7873,69.79
2022-10-03 12:00,10.76,5.412,7.7485,69.85
2022-10-03 13:00,10.76,5.403,7.7457,69.76
2022-10-03 14:00,10.85,5.394,7.7306,69.78
2022-10-03 15:00,10.58,5.235,7.7816,67.28
2022-10-03 16:00,10.61,5.262,7.7741,67.69